Location: Lake Lucerne
(45.5315°N, 88.8489°W)
Time: 01:29:09
(UTC-06:00)

N. Korean satellite - Visible Passes

Search period start: 21 November 2018 00:00
Search period end: 01 December 2018 00:00
Orbit: 456 x 512 km, 97.2° (Epoch: 20 November)

Date Brightness Start Highest point End Pass type
(mag) Time Alt. Az. Time Alt. Az. Time Alt. Az.
21 Nov 6.4 06:26:04 10° N 06:29:31 79° WNW 06:32:57 10° SSW visible
21 Nov 6.7 17:03:47 10° SSE 17:07:15 50° ENE 17:10:41 10° N visible
21 Nov 10.1 18:39:50 10° WSW 18:40:59 11° W 18:42:08 10° WNW visible
22 Nov 7.6 06:01:38 10° NNE 06:04:59 47° E 06:08:19 10° S visible
22 Nov 9.3 18:13:30 10° SW 18:16:17 21° W 18:19:03 10° NW visible
23 Nov 9.1 05:37:32 10° NE 05:40:22 23° E 05:43:11 10° SSE visible
23 Nov 7.9 17:48:16 10° S 17:51:40 41° W 17:55:01 10° NNW visible
24 Nov 10.0 05:14:10 10° ENE 05:15:39 12° E 05:17:08 10° ESE visible
24 Nov 6.5 17:23:33 10° SSE 17:27:06 88° WSW 17:30:38 10° NNW visible
25 Nov 6.5 06:21:24 10° NNE 06:24:52 90° SE 06:28:20 10° SSW visible
25 Nov 6.8 16:59:15 10° SE 17:02:38 44° ENE 17:05:59 10° N visible
25 Nov 10.0 18:34:45 10° WSW 18:36:19 12° W 18:37:52 10° WNW visible
26 Nov 7.9 05:57:01 10° NNE 06:00:19 41° E 06:03:37 10° S visible
26 Nov 9.1 18:08:43 10° SSW 18:11:36 23° W 18:14:29 10° NW visible
27 Nov 9.3 05:32:58 10° NE 05:35:40 21° E 05:38:22 10° SE visible
27 Nov 7.6 17:43:35 10° S 17:46:59 46° W 17:50:22 10° NNW visible
28 Nov 10.1 05:09:56 10° ENE 05:10:56 11° E 05:11:56 10° ESE visible
28 Nov 6.4 17:18:55 10° SSE 17:22:26 82° ENE 17:25:55 10° N visible
29 Nov 6.6 06:16:42 10° NNE 06:20:10 79° ESE 06:23:40 10° S visible
29 Nov 7.0 16:54:41 10° SE 16:57:57 38° ENE 17:01:12 10° N visible
29 Nov 9.9 18:29:43 10° SW 18:31:35 14° W 18:33:27 10° WNW visible
30 Nov 8.2 05:52:20 10° NNE 05:55:35 36° E 05:58:51 10° SSE visible
30 Nov 8.8 18:03:54 10° SSW 18:06:53 26° W 18:09:51 10° NW visible
